Location: ???????
(56.2167°N, 38.0500°E)
Time: 15:10:17
(UTC+00:00)

Cosmos 923 Rocket - Pass Details

Date: 19 May 2025
Orbit: 755 x 780 km, 74.0° (Epoch: 20 June)

Event Time Altitude Azimuth Distance (km) Brightness Sun altitude
Exits shadow 22:27:17 14° 224° (SW) 2,075 5.7 -12.7°
Maximum altitude 22:31:52 62° 304° (WNW) 881 4.4 -12.5°
Drops below altitude 10° 22:37:09 10° 25° (NNE) 2,343 8.0 -12.3°
Sets 22:39:35 0° 29° (NNE) 3,272 9.1 -12.2°
